Retour au catalogue

CZ-6A DEB

ActifPO
NORAD 61373·DEBRIS·🇨🇳 China

Lancé Aug 6, 2024 depuis Taiyuan Satellite Launch Center

Loading…

Prochains Passages (prochaines 24 heures)

TLE

FraisSource: Space-Track

Époque: Sep 14, 2026, 05:18 UTC

1 61373U 24140WN  26257.22117618  .00004401  00000-0  10170-2 0  9991
2 61373  88.7483 237.1566 0079381 254.9788 104.2625 14.53127258107029

Suivez CZ-6A DEB en temps réel avec AllMySat

Download on the App Store